N523PV KLAX-KSAN

Flight info

Callsign N523PV
Flight time 0h 28m
Altitude 13000
Route LAXX1 MZB DCT
Aircraft A319/M-SDE1E2E3GHIRWXYZ/LB1

Departure

Time 2026-05-06 05:05
Airport Los Angeles International Airport (KLAX)

Arrival

Time 2026-05-06 05:33
Airport San Diego International Airport (KSAN)
Time Latitude Longitude Altitude Speed Heading
2026-05-06 04:21 33.94399 -118.42882 104 ft 0 kts 263°
2026-05-06 04:43 33.94399 -118.42876 104 ft 2 kts 263°
2026-05-06 04:43 33.94401 -118.42858 105 ft 2 kts 263°
2026-05-06 04:43 33.94403 -118.42840 105 ft 2 kts 263°
2026-05-06 04:43 33.94405 -118.42821 106 ft 2 kts 263°
2026-05-06 04:44 33.94407 -118.42804 106 ft 2 kts 263°
2026-05-06 04:44 33.94408 -118.42786 106 ft 2 kts 263°
2026-05-06 04:44 33.94410 -118.42768 107 ft 2 kts 262°
2026-05-06 04:44 33.94408 -118.42751 107 ft 2 kts 308°
2026-05-06 04:45 33.94396 -118.42741 107 ft 1 kts 346°
2026-05-06 04:45 33.94390 -118.42740 107 ft 1 kts 356°
2026-05-06 04:45 33.94387 -118.42740 107 ft 0 kts 354°
2026-05-06 04:49 33.94388 -118.42740 107 ft 0 kts 353°
2026-05-06 04:49 33.94402 -118.42742 107 ft 3 kts 352°
2026-05-06 04:49 33.94437 -118.42748 107 ft 6 kts 353°
2026-05-06 04:50 33.94490 -118.42756 107 ft 7 kts 353°
2026-05-06 04:50 33.94539 -118.42755 108 ft 6 kts 36°
2026-05-06 04:50 33.94554 -118.42699 108 ft 8 kts 83°
2026-05-06 04:50 33.94561 -118.42628 109 ft 8 kts 84°
2026-05-06 04:51 33.94568 -118.42561 110 ft 7 kts 84°
2026-05-06 04:51 33.94574 -118.42497 112 ft 7 kts 82°
2026-05-06 04:51 33.94581 -118.42438 113 ft 6 kts 83°
2026-05-06 04:51 33.94587 -118.42382 114 ft 6 kts 82°
2026-05-06 04:52 33.94592 -118.42331 115 ft 5 kts 85°
2026-05-06 04:52 33.94596 -118.42284 116 ft 5 kts 83°
2026-05-06 04:52 33.94601 -118.42232 117 ft 7 kts 83°
2026-05-06 04:52 33.94607 -118.42158 117 ft 10 kts 85°
2026-05-06 04:53 33.94618 -118.42064 118 ft 11 kts 82°
2026-05-06 04:53 33.94628 -118.41964 119 ft 12 kts 85°
2026-05-06 04:53 33.94637 -118.41849 120 ft 14 kts 84°
2026-05-06 04:53 33.94649 -118.41719 120 ft 16 kts 82°
2026-05-06 04:54 33.94665 -118.41577 120 ft 17 kts 83°
2026-05-06 04:54 33.94679 -118.41428 120 ft 18 kts 84°
2026-05-06 04:54 33.94681 -118.41293 121 ft 14 kts 134°
2026-05-06 04:54 33.94595 -118.41272 120 ft 12 kts 170°
2026-05-06 04:55 33.94508 -118.41259 120 ft 12 kts 174°
2026-05-06 04:55 33.94417 -118.41246 120 ft 13 kts 174°
2026-05-06 04:55 33.94322 -118.41231 120 ft 13 kts 174°
2026-05-06 04:55 33.94230 -118.41218 122 ft 13 kts 172°
2026-05-06 04:56 33.94136 -118.41203 123 ft 13 kts 174°
2026-05-06 04:56 33.94035 -118.41190 123 ft 14 kts 174°
2026-05-06 04:56 33.93933 -118.41175 125 ft 14 kts 174°
2026-05-06 04:56 33.93833 -118.41161 127 ft 14 kts 174°
2026-05-06 04:57 33.93763 -118.41106 127 ft 13 kts 85°
2026-05-06 04:57 33.93778 -118.40990 127 ft 14 kts 83°
2026-05-06 04:57 33.93790 -118.40862 127 ft 15 kts 84°
2026-05-06 04:57 33.93805 -118.40730 127 ft 16 kts 83°
2026-05-06 04:58 33.93819 -118.40592 125 ft 17 kts 83°
2026-05-06 04:58 33.93835 -118.40435 122 ft 20 kts 83°
2026-05-06 04:58 33.93853 -118.40257 120 ft 22 kts 82°
2026-05-06 04:58 33.93872 -118.40073 118 ft 22 kts 83°
2026-05-06 04:59 33.93891 -118.39891 115 ft 22 kts 83°
2026-05-06 04:59 33.93911 -118.39699 111 ft 23 kts 86°
2026-05-06 04:59 33.93931 -118.39502 110 ft 23 kts 84°
2026-05-06 04:59 33.93951 -118.39301 107 ft 24 kts 82°
2026-05-06 05:00 33.93972 -118.39098 106 ft 24 kts 83°
2026-05-06 05:00 33.93993 -118.38889 104 ft 25 kts 84°
2026-05-06 05:00 33.94015 -118.38679 104 ft 24 kts 83°
2026-05-06 05:00 33.94034 -118.38480 103 ft 21 kts 82°
2026-05-06 05:01 33.94051 -118.38319 101 ft 20 kts 83°
2026-05-06 05:01 33.94068 -118.38153 101 ft 20 kts 83°
2026-05-06 05:01 33.94075 -118.38086 101 ft 0 kts 83°
2026-05-06 05:01 33.94075 -118.38085 101 ft 0 kts 83°
2026-05-06 05:04 33.94076 -118.38075 101 ft 5 kts 83°
2026-05-06 05:04 33.94058 -118.38007 101 ft 13 kts 160°
2026-05-06 05:04 33.93984 -118.38027 101 ft 10 kts 248°
2026-05-06 05:05 33.93975 -118.38110 101 ft 12 kts 265°
2026-05-06 05:05 33.93933 -118.38512 104 ft 88 kts 264°
2026-05-06 05:05 33.93827 -118.39545 116 ft 155 kts 263°
2026-05-06 05:05 33.93692 -118.40824 825 ft 155 kts 262°
2026-05-06 05:06 33.93565 -118.42104 1591 ft 158 kts 263°
2026-05-06 05:06 33.93429 -118.43408 2250 ft 165 kts 263°
2026-05-06 05:06 33.93266 -118.44845 2728 ft 181 kts 262°
2026-05-06 05:06 33.92859 -118.46341 3176 ft 198 kts 240°
2026-05-06 05:07 33.92056 -118.47749 3642 ft 215 kts 234°
2026-05-06 05:07 33.91101 -118.49252 4111 ft 235 kts 233°
2026-05-06 05:07 33.90049 -118.50873 4580 ft 256 kts 233°
2026-05-06 05:07 33.88920 -118.52599 5152 ft 273 kts 233°
2026-05-06 05:08 33.87698 -118.54351 5962 ft 280 kts 223°
2026-05-06 05:08 33.86012 -118.55527 6871 ft 283 kts 199°
2026-05-06 05:08 33.84117 -118.56152 7729 ft 289 kts 193°
2026-05-06 05:08 33.82148 -118.56691 8563 ft 295 kts 192°
2026-05-06 05:09 33.80138 -118.57230 9403 ft 301 kts 192°
2026-05-06 05:09 33.78075 -118.57790 10235 ft 307 kts 192°
2026-05-06 05:09 33.75968 -118.58364 10863 ft 321 kts 192°
2026-05-06 05:09 33.73705 -118.58978 11355 ft 340 kts 192°
2026-05-06 05:10 33.71319 -118.59518 11780 ft 357 kts 182°
2026-05-06 05:10 33.68834 -118.59208 12133 ft 371 kts 162°
2026-05-06 05:10 33.66488 -118.57831 12446 ft 384 kts 141°
2026-05-06 05:10 33.64616 -118.55503 12825 ft 389 kts 122°
2026-05-06 05:11 33.63463 -118.52593 12963 ft 386 kts 106°
2026-05-06 05:11 33.62730 -118.49534 12978 ft 385 kts 102°
2026-05-06 05:11 33.62065 -118.46416 12963 ft 384 kts 102°
2026-05-06 05:11 33.61418 -118.43292 12977 ft 384 kts 101°
2026-05-06 05:12 33.60778 -118.40207 12985 ft 384 kts 102°
2026-05-06 05:12 33.60127 -118.37076 12986 ft 384 kts 101°
2026-05-06 05:12 33.59481 -118.33978 12980 ft 384 kts 102°
2026-05-06 05:12 33.58843 -118.30907 12984 ft 384 kts 102°
2026-05-06 05:13 33.58199 -118.27787 12985 ft 384 kts 101°
2026-05-06 05:13 33.57560 -118.24696 12979 ft 384 kts 101°
2026-05-06 05:13 33.56921 -118.21593 12987 ft 384 kts 101°
2026-05-06 05:13 33.56274 -118.18448 12983 ft 385 kts 101°
2026-05-06 05:14 33.55637 -118.15340 12978 ft 385 kts 101°
2026-05-06 05:14 33.54998 -118.12231 12982 ft 385 kts 101°
2026-05-06 05:14 33.54371 -118.09148 12978 ft 386 kts 101°
2026-05-06 05:14 33.53730 -118.05996 12990 ft 386 kts 101°
2026-05-06 05:15 33.52950 -118.02952 12977 ft 389 kts 113°
2026-05-06 05:15 33.51408 -118.00269 12991 ft 393 kts 127°
2026-05-06 05:15 33.49596 -117.97825 12994 ft 393 kts 130°
2026-05-06 05:15 33.47751 -117.95390 12988 ft 392 kts 129°
2026-05-06 05:16 33.45945 -117.92954 12991 ft 392 kts 129°
2026-05-06 05:16 33.44172 -117.90509 12989 ft 392 kts 128°
2026-05-06 05:16 33.42401 -117.88027 12991 ft 392 kts 128°
2026-05-06 05:16 33.40622 -117.85510 12994 ft 392 kts 128°
2026-05-06 05:17 33.38888 -117.83046 12986 ft 392 kts 127°
2026-05-06 05:17 33.37131 -117.80544 12987 ft 392 kts 127°
2026-05-06 05:17 33.35365 -117.78022 12993 ft 393 kts 127°
2026-05-06 05:17 33.33607 -117.75514 12993 ft 393 kts 127°
2026-05-06 05:18 33.31866 -117.73030 12997 ft 393 kts 127°
2026-05-06 05:18 33.30168 -117.70609 12996 ft 393 kts 127°
2026-05-06 05:18 33.28415 -117.68109 13000 ft 393 kts 127°
2026-05-06 05:18 33.26650 -117.65597 12995 ft 392 kts 127°
2026-05-06 05:19 33.24889 -117.63090 13010 ft 392 kts 127°
2026-05-06 05:19 33.23153 -117.60622 13007 ft 393 kts 127°
2026-05-06 05:19 33.21379 -117.58099 13004 ft 393 kts 127°
2026-05-06 05:19 33.19630 -117.55608 12994 ft 392 kts 127°
2026-05-06 05:20 33.17882 -117.53120 13008 ft 393 kts 128°
2026-05-06 05:20 33.16121 -117.50616 13006 ft 393 kts 128°
2026-05-06 05:20 33.14363 -117.48120 13005 ft 393 kts 128°
2026-05-06 05:20 33.12605 -117.45629 13003 ft 394 kts 128°
2026-05-06 05:21 33.10853 -117.43144 13002 ft 394 kts 128°
2026-05-06 05:21 33.09095 -117.40657 12865 ft 382 kts 128°
2026-05-06 05:21 33.07422 -117.38296 12014 ft 372 kts 128°
2026-05-06 05:21 33.05786 -117.35983 11401 ft 367 kts 128°
2026-05-06 05:22 33.03980 -117.33875 11005 ft 360 kts 141°
2026-05-06 05:22 33.01823 -117.32407 10775 ft 349 kts 155°
2026-05-06 05:22 32.99609 -117.31431 10586 ft 337 kts 159°
2026-05-06 05:22 32.97494 -117.30369 10376 ft 323 kts 145°
2026-05-06 05:23 32.95824 -117.28622 10060 ft 313 kts 130°
2026-05-06 05:23 32.94400 -117.26728 9726 ft 308 kts 129°
2026-05-06 05:23 32.91568 -117.23010 9051 ft 294 kts 131°
2026-05-06 05:24 32.90189 -117.21288 8487 ft 287 kts 131°
2026-05-06 05:24 32.88807 -117.19596 7897 ft 279 kts 132°
2026-05-06 05:24 32.87032 -117.17451 7370 ft 272 kts 133°
2026-05-06 05:24 32.86147 -117.16389 7138 ft 271 kts 133°
2026-05-06 05:25 32.84377 -117.14269 6691 ft 270 kts 133°
2026-05-06 05:25 32.83050 -117.12686 6363 ft 269 kts 133°
2026-05-06 05:25 32.82174 -117.11643 6228 ft 265 kts 133°
2026-05-06 05:25 32.80455 -117.09595 6122 ft 260 kts 133°
2026-05-06 05:26 32.79610 -117.08586 6065 ft 259 kts 133°
2026-05-06 05:26 32.78368 -117.07082 5953 ft 248 kts 128°
2026-05-06 05:26 32.77529 -117.05385 5908 ft 234 kts 108°
2026-05-06 05:26 32.76918 -117.02917 5585 ft 231 kts 102°
2026-05-06 05:27 32.76651 -117.01699 5414 ft 231 kts 102°
2026-05-06 05:27 32.76244 -116.99882 5206 ft 227 kts 103°
2026-05-06 05:27 32.75819 -116.98119 5109 ft 218 kts 109°
2026-05-06 05:27 32.74995 -116.96590 4797 ft 221 kts 136°
2026-05-06 05:28 32.73696 -116.95635 4510 ft 221 kts 161°
2026-05-06 05:28 32.71684 -116.95472 4143 ft 219 kts 194°
2026-05-06 05:28 32.70738 -116.95876 3968 ft 217 kts 210°
2026-05-06 05:28 32.69308 -116.97466 3673 ft 209 kts 242°
2026-05-06 05:29 32.68917 -116.98502 3514 ft 206 kts 256°
2026-05-06 05:29 32.68780 -117.00164 3230 ft 200 kts 278°
2026-05-06 05:29 32.69083 -117.01691 3078 ft 182 kts 287°
2026-05-06 05:29 32.69560 -117.03518 2815 ft 165 kts 288°
2026-05-06 05:30 32.69885 -117.04772 2679 ft 152 kts 288°
2026-05-06 05:30 32.70087 -117.05565 2484 ft 152 kts 287°
2026-05-06 05:30 32.70385 -117.06755 2225 ft 147 kts 287°
2026-05-06 05:30 32.70663 -117.07877 2025 ft 136 kts 287°
2026-05-06 05:31 32.70929 -117.08960 1827 ft 138 kts 287°
2026-05-06 05:31 32.71198 -117.10063 1586 ft 136 kts 286°
2026-05-06 05:31 32.71458 -117.11131 1371 ft 135 kts 286°
2026-05-06 05:31 32.71718 -117.12202 1158 ft 135 kts 286°
2026-05-06 05:32 32.71977 -117.13267 950 ft 135 kts 286°
2026-05-06 05:32 32.72237 -117.14336 742 ft 134 kts 286°
2026-05-06 05:32 32.72491 -117.15406 536 ft 134 kts 284°
2026-05-06 05:32 32.72744 -117.16456 399 ft 134 kts 286°
2026-05-06 05:33 32.73093 -117.17866 86 ft 133 kts 282°
2026-05-06 05:33 32.73259 -117.18569 25 ft 126 kts 284°
2026-05-06 05:33 32.73470 -117.19434 22 ft 85 kts 284°
2026-05-06 05:33 32.73612 -117.20024 19 ft 35 kts 286°
2026-05-06 05:34 32.73642 -117.20159 19 ft 17 kts 269°
2026-05-06 05:34 32.73576 -117.20217 19 ft 4 kts 196°
2026-05-06 05:34 32.73574 -117.20218 19 ft 0 kts 196°
2026-05-06 05:37 32.73554 -117.20212 19 ft 6 kts 136°
2026-05-06 05:37 32.73540 -117.20150 19 ft 9 kts 105°
2026-05-06 05:38 32.73518 -117.20058 19 ft 13 kts 107°
2026-05-06 05:38 32.73489 -117.19939 19 ft 15 kts 106°
2026-05-06 05:38 32.73458 -117.19810 19 ft 16 kts 105°
2026-05-06 05:38 32.73415 -117.19637 20 ft 16 kts 104°
2026-05-06 05:39 32.73395 -117.19548 21 ft 16 kts 106°
2026-05-06 05:39 32.73354 -117.19434 22 ft 13 kts 148°
2026-05-06 05:39 32.73287 -117.19504 22 ft 9 kts 264°
2026-05-06 05:39 32.73288 -117.19547 22 ft 4 kts 275°
2026-05-06 05:40 32.73288 -117.19552 22 ft 0 kts 274°